This is the latest recevied weather packets stored in our database for station/object AI5KP-13. If no packets are shown the sender has not sent any weather packets the latest 10 day(s).
| Time | Temp. | Humidity | Pressure | Rain* | Wind** | Luminosity | Snow |
|---|---|---|---|---|---|---|---|
| 1777570775 | 17.78° C | 52% | 1017.9 hPa | 0 mm | - | 378 W/m² | - |
| 1777570472 | 19.44° C | 52% | 1017.9 hPa | 0 mm | - | 414 W/m² | - |
| 1777570168 | 18.89° C | 48% | 1018 hPa | 0 mm | - | 443 W/m² | - |
| 1777569864 | 17.22° C | 55% | 1017.9 hPa | 0 mm | - | 476 W/m² | - |
| 1777569560 | 17.78° C | 53% | 1017.8 hPa | 0 mm | - | 411 W/m² | - |
| 1777569257 | 17.22° C | 54% | 1018 hPa | 0 mm | - | 438 W/m² | - |
| 1777568953 | 16.11° C | 56% | 1017.9 hPa | 0 mm | - | 361 W/m² | - |
| 1777568650 | 16.67° C | 59% | 1017.9 hPa | 0 mm | - | 338 W/m² | - |
| 1777568347 | 16.11° C | 57% | 1017.9 hPa | 0 mm | - | 282 W/m² | - |
| 1777568044 | 15.56° C | 60% | 1018.2 hPa | 0 mm | - | 251 W/m² | - |
| 1777567740 | 16.11° C | 60% | 1018 hPa | 0 mm | - | 254 W/m² | - |
| 1777567437 | 15.56° C | 60% | 1018.2 hPa | 0 mm | - | 263 W/m² | - |
| 1777567135 | 15.56° C | 58% | 1018.1 hPa | 0 mm | - | 279 W/m² | - |
| 1777566833 | 15.56° C | 60% | 1018 hPa | 0 mm | - | 274 W/m² | - |
| 1777566530 | 15.56° C | 58% | 1018.4 hPa | 0 mm | - | 279 W/m² | - |
| 1777566228 | 16.11° C | 59% | 1018.1 hPa | 0 mm | - | 276 W/m² | - |
| 1777565924 | 15.56° C | 60% | 1018.4 hPa | 0 mm | - | 285 W/m² | - |
| 1777565620 | 16.67° C | 60% | 1018.3 hPa | 0 mm | - | 288 W/m² | - |
| 1777565317 | 16.67° C | 58% | 1018.4 hPa | 0 mm | - | 315 W/m² | - |
| 1777565012 | 16.11° C | 62% | 1018 hPa | 0 mm | - | 298 W/m² | - |
| 1777564708 | 15.56° C | 61% | 1018.2 hPa | 0 mm | - | 306 W/m² | - |
| 1777564404 | 16.11° C | 59% | 1018.1 hPa | 0 mm | - | 453 W/m² | - |
| 1777564100 | 16.11° C | 59% | 1018.1 hPa | 0 mm | - | 436 W/m² | - |
| 1777563796 | 15.56° C | 60% | 1017.9 hPa | 0 mm | - | 446 W/m² | - |
| 1777563492 | 15.56° C | 60% | 1017.8 hPa | 0 mm | - | 454 W/m² | - |
* Rain latest hour (hover to see other rain measurements)
** Current wind speed in m/s (hover to see current wind gust speed)